Regional Weather Roundup
Issued by NWS San Angelo, TX

Home | Current Version | Previous Version | Text Only | Print | Product List | Glossary On
Versions: 1 2 3 4 5 6 7 8 9 10 11 12 13 14 15 16 17 18 19 20 21 22 23 24 25 26 27 28 29 30 31 32 33 34 35 36 37 38 39 40 41 42 43 44 45 46 47 48 49 50
000
ASUS44 KSJT 211558
RWRSJT
WEST CENTRAL TEXAS REGIONAL WEATHER ROUNDUP
NATIONAL WEATHER SERVICE SAN ANGELO TX
1100 AM CDT TUE OCT 21 2014

NOTE: "FAIR" INDICATES FEW OR NO CLOUDS BELOW 12,000 FEET WITH NO
SIGNIFICANT WEATHER AND/OR OBSTRUCTIONS TO VISIBILITY.

TXZ049-054-064>066-071>073-076>078-098-099-113-114-127-128-139-140-
154-155-168>170-211700
...LOCATIONS ACROSS WEST CENTRAL TEXAS...

CITY           SKY/WX    TMP DP  RH WIND       PRES   REMARKS
SAN ANGELO     SUNNY     69  56  62 E3        30.13S
ABILENE        SUNNY     73  57  57 SW8       30.13S
DYESS AFB      NOT AVBL
JUNCTION       MOSUNNY   69  57  65 CALM      30.12F
SWEETWATER     NOT AVBL
BROWNWOOD      NOT AVBL
COLEMAN        NOT AVBL
SONORA         NOT AVBL
OZONA          NOT AVBL
BRADY          NOT AVBL
$$

TEXAS PANHANDLE/OKLAHOMA PANHANDLE

CITY           SKY/WX    TMP DP  RH WIND       PRES   REMARKS
AMARILLO       PTSUNNY   67  55  65 SW9       30.15S
BORGER         PTSUNNY   70  53  54 VRB3      30.13S
CANADIAN       NOT AVBL
DALHART        SUNNY     68  50  52 SW12      30.15F
DUMAS          NOT AVBL
GUYMON         NOT AVBL
HEREFORD       NOT AVBL
PAMPA          NOT AVBL
PERRYTON       NOT AVBL
$$

SOUTHERN PANHANDLE/SOUTH PLAINS/ROLLING PLAINS

CITY           SKY/WX    TMP DP  RH WIND       PRES   REMARKS
LUBBOCK        MOSUNNY   66  54  65 VRB3      30.15S
SNYDER         NOT AVBL
CHILDRESS      SUNNY     73  55  53 VRB5      30.12F
SEMINOLE       NOT AVBL
$$

PERMIAN BASIN

CITY           SKY/WX    TMP DP  RH WIND       PRES   REMARKS
MIDLAND        MOSUNNY   70  57  63 S13       30.13S
ODESSA         MOSUNNY   69  57  65 S16       30.14R
WINK           CLOUDY    66  61  84 SE13      30.10R
$$

FAR WEST/SOUTHWEST MOUNTAINS/TRANS PECOS

CITY           SKY/WX    TMP DP  RH WIND       PRES   REMARKS
ALPINE         NOT AVBL
DRYDEN           N/A     69  62  78 E14       30.09R
EL PASO        MOSUNNY   64  53  67 NE5       30.10S
FORT STOCKTON  CLOUDY    64  61  90 SE12      30.12S
GUADALUPE PASS NOT AVBL
MARFA          NOT AVBL
PECOS          NOT AVBL
$$

DALLAS/FORT WORTH METROPLEX

CITY           SKY/WX    TMP DP  RH WIND       PRES   REMARKS
DFW AIRPORT    MOSUNNY   73  60  63 SW3       30.12S
FTW MEACHAM    SUNNY     73  60  63 S6        30.11S
DAL-EXECUTIVE  SUNNY     75  57  53 CALM      30.11F
GRAND PRAIRIE  SUNNY     72  61  68 MISG      30.13S
ADDISON        NOT AVBL
MESQUITE       SUNNY     72  59  64 CALM      30.12S
LANCASTER      NOT AVBL
$$

NORTH CENTRAL TEXAS

CITY           SKY/WX    TMP DP  RH WIND       PRES   REMARKS
SHRMAN/DENISON NOT AVBL
GAINESVILLE    NOT AVBL
BRIDGEPORT     NOT AVBL
DENTON         SUNNY     72  60  66 SE3       30.12S
WAXAHACHIE     NOT AVBL
GRANBURY       NOT AVBL
$$

WESTERN NORTH TEXAS

CITY           SKY/WX    TMP DP  RH WIND       PRES   REMARKS
WICHITA FALLS  SUNNY     74  58  57 SW7       30.10S
VERNON         NOT AVBL
BRECKENRIDGE   NOT AVBL
COMANCHE       NOT AVBL
$$

CENTRAL AND SOUTH CENTRAL TEXAS

CITY           SKY/WX    TMP DP  RH WIND       PRES   REMARKS
AUSTIN/BERGSTM MOSUNNY   71  59  65 E3        30.10S
WACO           SUNNY     71  59  65 CALM      30.11F
HILLSBORO      NOT AVBL
TEMPLE         NOT AVBL
KILLEEN-GRAY   NOT AVBL
FORT HOOD      NOT AVBL
GEORGETOWN     SUNNY     72  59  64 E3        30.11S
LAGO VISTA     NOT AVBL
SAN MARCOS     SUNNY     75  55  50 NE6       30.10S
NEW BRAUNFELS  SUNNY     76  56  49 E7        30.08S
RANDOLPH AFB   NOT AVBL
SAN ANTONIO    MOSUNNY   75  59  57 E10       30.09S
STINSON        SUNNY     76  58  53 E10       30.06F
PLEASANTON     NOT AVBL
LA GRANGE      NOT AVBL
GIDDINGS       NOT AVBL
$$

EAST TEXAS

CITY           SKY/WX    TMP DP  RH WIND       PRES   REMARKS
PARIS          NOT AVBL
CLARKSVILLE    NOT AVBL
TYLER          SUNNY     73  53  49 VRB3      30.13S
LONGVIEW       PTSUNNY   71  57  61 CALM      30.12F
PALESTINE      NOT AVBL
NACOGDOCHES    NOT AVBL
$$

TEXAS HILL COUNTRY AND EDWARDS PLATEAU

CITY           SKY/WX    TMP DP  RH WIND       PRES   REMARKS
LLANO          NOT AVBL
HORSESHOE BAY  NOT AVBL
KERRVILLE      NOT AVBL
FREDERICKSBRG  NOT AVBL
ROCKSPRINGS    NOT AVBL
HONDO          SUNNY     73  59  61 E13       30.09F
UVALDE         NOT AVBL
DEL RIO        CLOUDY    73  64  73 E9        30.06F
$$

SOUTHEAST TEXAS

CITY           SKY/WX    TMP DP  RH WIND       PRES   REMARKS
COLLEGE STN    SUNNY     72  55  55 E6        30.10S
CALDWELL       NOT AVBL
CROCKETT       NOT AVBL
BRENHAM        NOT AVBL
HUNTSVILLE     SUNNY     71  58  63 E3        30.10S
CONROE         SUNNY     73  56  54 NE7       30.09F
HOUSTON BUSH   SUNNY     73  55  53 E8        30.08S
HOUSTON HOBBY  SUNNY     74  55  51 E12       30.07R
PERLAND        SUNNY     75  56  51 E10G23    30.08R
WHARTON        NOT AVBL
$$

THE UPPER TEXAS COAST

CITY           SKY/WX    TMP DP  RH WIND       PRES   REMARKS
ORANGE         NOT AVBL
PORT ARTHUR    SUNNY     75  56  51 NE13      30.07S
GALVESTON      MOSUNNY   76  67  73 NE12      30.06S
ANGLETON       SUNNY     76  64  66 NE8       30.05S
BAY CITY       NOT AVBL
$$

TEXAS COASTAL BEND, RIO GRANDE PLAINS DEEP SOUTH TEXAS

CITY           SKY/WX    TMP DP  RH WIND       PRES   REMARKS
VICTORIA       SUNNY     79  63  57 NE9       30.05F
BEEVILLE       NOT AVBL
ROCKPORT       SUNNY     79  68  69 NE10      30.02S
PORT ARANSAS   NOT AVBL
PORT LAVACA    NOT AVBL
CORPUS CHRISTI MOSUNNY   77  69  76 NE15      30.02S
KINGSVILLE NAS NOT AVBL
COTULLA        SUNNY     79  63  57 E10       30.05S
LAREDO         NOT AVBL
BROWNSVILLE    LGT RAIN  83  72  69 E12       29.96S
PORT ISABEL    RAIN      74  72  93 NE9       29.97R FOG
HEBBRONVILLE   NOT AVBL
MCALLEN        LGT RAIN  78  71  79 N6        29.99R
WESLACO        NOT AVBL
FALFURRIAS     NOT AVBL
EDINBURG       NOT AVBL
$$


USA.gov is the U.S. government's official web portal to all federal, state and local government web resources and services.